Regional Weather Roundup
Issued by NWS

Home | Current Version | Previous Version | Text Only | Print | Product List | Glossary On
Versions: 1 2 3 4 5 6 7 8 9 10 11 12 13 14 15 16 17 18 19 20 21 22 23 24 25 26 27 28 29 30 31 32 33 34 35 36 37 38 39 40 41 42 43 44 45 46 47 48 49 50
000
ASCA44 KEWX 250812
RWRMX

LATIN AMERICA AND CARIBBEAN REGIONAL WEATHER ROUNDUP
NATIONAL WEATHER SERVICE AUSTIN/SAN ANTONIO TX
300 AM CDT SUN JUN 25 2017

NOTE: "FAIR" INDICATED FEW OR NO CLOUDS BELOW 12,000 FEET WITH NO
SIGNIFICANT WEATHER AND/OR OBSTRUCTIONS TO VISIBILITY.

BAJA CALIFORNIA

CITY           SKY/WX    TMP DP  RH WIND       PRES   REMARKS
MEXICALI       CLEAR     84  66  54 SE3       29.67S
S.J. DEL CABO    N/A    N/A N/A N/A MISG        N/A
TIJUANA        CLOUDY    61  61 100 CALM      29.90F FOG

NORTHWESTERN MEXICO

CITY           SKY/WX    TMP DP  RH WIND       PRES   REMARKS
HERMOSILLO     MOCLDY    91  66  43 SW8       29.80R HX  94

NORTHEASTERN MEXICO

CITY           SKY/WX    TMP DP  RH WIND       PRES   REMARKS
MONCLOVA         N/A    N/A N/A N/A MISG        N/A
MONTERREY      CLEAR     72  64  78 SW6       30.05R
REYNOSA          N/A    N/A N/A N/A MISG        N/A
CD. VICTORIA     N/A    N/A N/A N/A MISG        N/A

WESTERN MEXICO

CITY           SKY/WX    TMP DP  RH WIND       PRES   REMARKS
AGUASCALIENTES   N/A    N/A N/A N/A MISG        N/A
COLIMA           N/A    N/A N/A N/A MISG        N/A
GUADALAJARA    CLOUDY    64  59  82 N3        30.20S
MAZATLAN       CLOUDY    79  73  83 CALM      29.88S
P. VALLARTA    CLOUDY    79  79 100 E3        29.89F
URUAPAN          N/A    N/A N/A N/A MISG        N/A
ZACATECAS      CLEAR     61  46  59 S10       30.34F

CENTRAL MEXICO

CITY           SKY/WX    TMP DP  RH WIND       PRES   REMARKS
CUERNAVACA       N/A    N/A N/A N/A MISG        N/A
MEXICO CITY    PTCLDY    61  48  63 W6        30.34F
MORELIA        MOCLDY    57  57 100 CALM      30.24F
POZA RICA        N/A    N/A N/A N/A MISG        N/A
S. LUIS POTOSI PTCLDY    61  52  72 E8        30.30F
TOLUCA         CLOUDY    55  50  82 S6        30.38F

SOUTHERN MEXICO

CITY           SKY/WX    TMP DP  RH WIND       PRES   REMARKS
ACAPULCO       MOCLDY    79  73  83 NE7       29.87F
B. DE HUATULCO   N/A    N/A N/A N/A MISG        N/A
P. ESCONDIDO     N/A    N/A N/A N/A MISG        N/A
VERACRUZ       CLOUDY    75  73  94 CALM      29.96F

YUCATAN PENINSULA

CITY           SKY/WX    TMP DP  RH WIND       PRES   REMARKS
CAMPECHE         N/A    N/A N/A N/A MISG        N/A
CANCUN         PTCLDY    81  79  94 NE2       30.01F
CHETUMAL         N/A    N/A N/A N/A MISG        N/A
CD. DEL CARMEN   N/A    N/A N/A N/A MISG        N/A
COZUMEL        MOCLDY    79  77  94 CALM      29.98F
MERIDA         CLOUDY    75  73  94 CALM      29.99F
MINATITLAN       N/A    N/A N/A N/A MISG        N/A
TAPACHULA      MOCLDY    77  75  94 CALM      29.91F

CENTRAL AMERICA

CITY           SKY/WX    TMP DP  RH WIND       PRES   REMARKS

CARIBBEAN

CITY           SKY/WX    TMP DP  RH WIND       PRES   REMARKS
KINGSTON       PTCLDY    81  72  74 N8        29.94S
NASSAU         MOCLDY    81  75  83 E3        30.09
SAN JUAN       PTCLDY    79  73  83 CALM      30.05F
SANTO DOMINGO  PTCLDY    75  73  94 CALM      30.00S THUNDER
ST. CROIX      PTCLDY    82  73  74 E13       30.05S
ST. THOMAS     MOCLDY    81  73  78 E9        30.04F

$$





USA.gov is the U.S. government's official web portal to all federal, state and local government web resources and services.